Location: Unspecified
(35.3909°N, 0.0000°E)
Time: 00:48:09
(UTC+00:00)

Explorer 7 - All Passes

Search period start: 04 April 2026 00:00
Search period end: 14 April 2026 00:00
Orbit: 429 x 539 km, 50.2° (Epoch: 29 March)

Date Brightness Start Highest point End Pass type
(mag) Time Alt. Az. Time Alt. Az. Time Alt. Az.
4 Apr - 01:41:49 10° N 01:43:27 12° NNE 01:45:03 10° NE night (unlit)
4 Apr - 03:18:58 10° NW 03:22:32 49° NE 03:25:57 10° ESE visible
4 Apr - 04:58:19 10° W 05:00:31 16° SW 05:02:41 10° SSW visible
4 Apr - 20:14:07 10° SW 20:18:10 86° SE 20:22:09 10° NE visible
4 Apr - 21:54:05 10° WNW 21:56:56 19° NNW 21:59:44 10° NNE visible
5 Apr - 01:14:49 10° N 01:16:22 12° NNE 01:17:54 10° NE night (unlit)
5 Apr - 02:51:56 10° NW 02:55:29 45° NE 02:58:54 10° ESE visible
5 Apr - 04:31:05 10° W 04:33:31 17° SW 04:35:53 10° S visible
5 Apr - 19:47:02 10° SW 19:51:06 79° SE 19:55:05 10° NE visible
5 Apr - 21:26:52 10° WNW 21:29:50 19° NNW 21:32:44 10° NNE visible
6 Apr - 00:47:47 10° N 00:49:15 12° NNE 00:50:42 10° NE night (unlit)
6 Apr - 02:24:52 10° NW 02:28:24 42° NE 02:31:49 10° ESE night (unlit)
6 Apr - 04:03:52 10° W 04:06:28 19° SW 04:09:01 10° S visible
6 Apr - 19:19:56 10° SW 19:23:59 73° SE 19:27:59 10° NE visible
6 Apr - 20:59:37 10° WNW 21:02:41 20° NNW 21:05:42 10° NNE visible
7 Apr - 00:20:42 10° N 00:22:06 12° NNE 00:23:28 10° NE night (unlit)
7 Apr - 01:57:45 10° NW 02:01:18 39° NE 02:04:42 10° ESE night (unlit)
7 Apr - 03:36:37 10° W 03:39:24 21° SW 03:42:07 10° S night (unlit)
7 Apr - 18:52:49 10° SW 18:56:52 67° SE 19:00:51 10° NE visible
7 Apr - 20:32:21 10° WNW 20:35:31 22° NNW 20:38:38 10° NNE visible
7 Apr - 23:53:36 10° N 23:54:54 11° NNE 23:56:12 10° NE night (unlit)
8 Apr - 01:30:38 10° NW 01:34:09 37° NNE 01:37:32 10° ESE night (unlit)
8 Apr - 03:09:22 10° WNW 03:12:19 23° SW 03:15:09 10° S night (unlit)
8 Apr - 18:25:40 10° SW 18:29:41 62° SE 18:33:41 10° ENE daylight
8 Apr - 20:05:04 10° W 20:08:19 23° NNW 20:11:32 10° NNE visible
8 Apr - 23:26:29 10° N 23:27:42 11° NNE 23:28:54 10° NNE night (unlit)
9 Apr - 01:03:28 10° NW 01:06:58 35° NNE 01:10:20 10° E night (unlit)
9 Apr - 02:42:06 10° WNW 02:45:10 25° SW 02:48:09 10° S night (unlit)
9 Apr - 17:58:30 10° SW 18:02:30 56° SE 18:06:28 10° ENE daylight
9 Apr - 19:37:45 10° W 19:41:05 24° NNW 19:44:24 10° NNE visible
9 Apr - 22:59:20 10° N 23:00:27 11° NNE 23:01:34 10° NNE night (unlit)
10 Apr - 00:36:17 10° NW 00:39:46 33° NNE 00:43:06 10° E night (unlit)
10 Apr - 02:14:49 10° WNW 02:18:00 28° SW 02:21:06 10° SSE night (unlit)
10 Apr - 17:31:19 10° SSW 17:35:17 52° SE 17:39:14 10° ENE daylight
10 Apr - 19:10:25 10° W 19:13:49 25° NNW 19:17:13 10° NNE visible
10 Apr - 20:52:52 10° NNW 20:53:18 10° N 20:53:45 10° N visible
10 Apr - 22:32:08 10° N 22:33:10 11° NNE 22:34:11 10° NNE visible
11 Apr - 00:09:04 10° NNW 00:12:31 31° NNE 00:15:51 10° E night (unlit)
11 Apr - 01:47:30 10° WNW 01:50:49 30° SW 01:54:01 10° SSE night (unlit)
11 Apr - 17:04:07 10° SSW 17:08:02 47° SE 17:11:57 10° ENE daylight
11 Apr - 18:43:03 10° W 18:46:33 27° NNW 18:50:01 10° NNE daylight
11 Apr - 20:25:13 10° NNW 20:26:00 10° N 20:26:47 10° N visible
11 Apr - 22:04:56 10° N 22:05:51 11° N 22:06:47 10° NNE visible
11 Apr - 23:41:49 10° NNW 23:45:15 29° NNE 23:48:33 10° E night (unlit)
12 Apr - 01:20:10 10° WNW 01:23:35 33° SW 01:26:53 10° SSE night (unlit)
12 Apr - 16:36:54 10° SSW 16:40:45 43° SE 16:44:39 10° ENE daylight
12 Apr - 18:15:40 10° W 18:19:13 28° NNW 18:22:46 10° NNE daylight
12 Apr - 19:57:38 10° NNW 19:58:39 11° N 19:59:40 10° N visible
12 Apr - 21:37:42 10° N 21:38:31 11° N 21:39:21 10° NNE visible
12 Apr - 23:14:33 10° NNW 23:17:56 28° NNE 23:21:13 10° E night (unlit)
13 Apr - 00:52:49 10° WNW 00:56:20 37° SW 00:59:43 10° SSE night (unlit)
13 Apr - 16:09:39 10° SSW 16:13:28 40° SE 16:17:17 10° ENE daylight
13 Apr - 17:48:16 10° W 17:51:53 30° NNW 17:55:30 10° NNE daylight
13 Apr - 19:30:04 10° NNW 19:31:17 11° NNW 19:32:29 10° N visible
13 Apr - 21:10:26 10° N 21:11:09 10° N 21:11:51 10° NNE visible
13 Apr - 22:47:15 10° NNW 22:50:36 26° NNE 22:53:51 10° E visible
